Terminal Aerodrome Forecast
Issued by NWS

Home | Current Version | Previous Version | Text Only | Print | Product List | Glossary On
Versions: 1 2 3 4 5 6 7 8 9 10 11 12 13 14 15 16 17 18 19 20
000
FTUS43 KILX 280500
TAFBMI
TAF
KBMI 280531Z 2806/2906 31011KT P6SM BKN015
     FM280900 31008KT P6SM OVC015
     FM281400 28007KT P6SM SCT015=

USA.gov is the U.S. government's official web portal to all federal, state and local government web resources and services.